Location: Skymont Scout Reservation
(35.4344°N, 85.8742°W)
Time: 23:15:26
(UTC-05:00)

ISS - All Passes

Search period start: 23 October 2017 00:00
Search period end: 02 November 2017 00:00
Orbit: 400 x 408 km, 51.6° (Epoch: 24 October)

Date Brightness Start Highest point End Pass type
(mag) Time Alt. Az. Time Alt. Az. Time Alt. Az.
23 Oct - 07:23:06 10° SE 07:23:10 10° SE 07:23:13 10° SE daylight
23 Oct - 08:56:01 10° WSW 08:59:12 60° NW 09:02:27 10° NE daylight
23 Oct - 10:35:47 10° NNW 10:36:15 10° NNW 10:36:43 10° NNW daylight
23 Oct - 15:26:19 10° NNW 15:29:22 36° NE 15:32:25 10° ESE daylight
23 Oct - 17:03:23 10° W 17:05:38 17° SW 17:07:51 10° S daylight
24 Oct - 08:03:42 10° SW 08:06:54 60° SE 08:10:06 10° NE daylight
24 Oct - 09:41:35 10° WNW 09:43:37 15° NNW 09:45:40 10° N daylight
24 Oct - 14:34:19 10° NNW 14:36:53 21° NNE 14:39:27 10° E daylight
24 Oct - 16:10:24 10° WNW 16:13:25 35° SW 16:16:27 10° SSE daylight
25 Oct - 07:11:51 10° S 07:14:38 27° SE 07:17:27 10° ENE daylight
25 Oct - 08:48:19 10° W 08:51:04 25° NNW 08:53:50 10° NNE daylight
25 Oct - 13:42:37 10° N 13:44:18 13° NNE 13:45:59 10° ENE daylight
25 Oct - 15:17:52 10° NW 15:21:09 82° SW 15:24:24 10° SE daylight
26 Oct - 06:20:52 10° SSE 06:22:27 13° SE 06:24:03 10° E visible
26 Oct - 07:55:28 10° WSW 07:58:35 46° NW 08:01:45 10° NE daylight
26 Oct - 14:25:35 10° NW 14:28:45 46° NE 14:31:54 10° ESE daylight
26 Oct - 16:03:14 10° W 16:04:54 13° SW 16:06:34 10° SSW daylight
27 Oct - 07:02:58 10° SW 07:06:12 81° SE 07:09:27 10° NE daylight
27 Oct - 08:41:21 10° WNW 08:43:02 13° NNW 08:44:43 10° N daylight
27 Oct - 13:33:30 10° NNW 13:36:16 25° NNE 13:39:01 10° E daylight
27 Oct - 15:09:52 10° WNW 15:12:42 27° SW 15:15:31 10° SSE daylight
28 Oct - 06:10:54 10° SSW 06:13:53 35° SE 06:16:53 10° ENE visible
28 Oct - 07:47:52 10° W 07:50:25 21° NNW 07:52:58 10° NNE daylight
28 Oct - 12:41:38 10° N 12:43:40 15° NNE 12:45:42 10° ENE daylight
28 Oct - 14:17:10 10° NW 14:20:24 62° SW 14:23:37 10° SE daylight
29 Oct - 05:19:28 10° S 05:21:38 17° SE 05:23:49 10° E visible
29 Oct - 06:54:50 10° WSW 06:57:52 36° NW 07:00:56 10° NNE daylight
29 Oct - 11:50:34 10° NNE 11:50:58 10° NNE 11:51:23 10° NNE daylight
29 Oct - 13:24:47 10° NW 13:28:01 59° NE 13:31:13 10° ESE daylight
29 Oct - 15:03:33 10° WSW 15:04:04 10° SW 15:04:35 10° SW daylight
30 Oct - 06:02:10 10° SW 06:05:25 78° NW 06:08:40 10° NE visible
30 Oct - 07:41:08 10° NW 07:42:20 12° NNW 07:43:33 10° N daylight
30 Oct - 12:32:35 10° NNW 12:35:31 30° NE 12:38:26 10° E daylight
30 Oct - 14:09:16 10° WNW 14:11:51 21° SW 14:14:25 10° S daylight
31 Oct - 05:09:55 10° SSW 05:13:02 46° SE 05:16:10 10° ENE visible
31 Oct - 06:47:21 10° WNW 06:49:39 18° NNW 06:51:58 10° NNE daylight
31 Oct - 11:40:36 10° NNW 11:42:55 18° NNE 11:45:14 10° ENE daylight
31 Oct - 13:16:24 10° WNW 13:19:32 46° SW 13:22:40 10° SSE daylight
01 Nov - 04:18:10 10° S 04:20:43 21° SE 04:23:16 10° ENE visible
01 Nov - 05:54:08 10° W 05:57:03 30° NW 05:59:58 10° NNE visible
01 Nov - 10:48:59 10° N 10:50:12 12° NNE 10:51:26 10° NE daylight
01 Nov - 12:23:53 10° NW 12:27:09 77° NE 12:30:23 10° SE daylight
